Flag for Canada Weather past 2 weeks in Calgary, Alberta, Canada

Now
43 °F

Passing clouds.


Feels Like: 36 °F
Forecast: 35 / 51 °F
Wind: 12 mph from Northeast

Location: Calgary International


UV Index: 3 (Moderate)

Visibility: 15 mi


Pressure: 29.73 "Hg

Humidity: 49%

Dew point: 25 °F

Location of CalgaryLocation

Historic Weather in Calgary

°F

Calgary temperature yesterday

Maximum temperature yesterday: 55 °F (at 2:00 PM)
Minimum temperature yesterday: 36 °F (at 11:00 PM)
Average temperature yesterday: 44 °F

Past Weeks' High & Low Weather Summary

 TemperatureHumidityPressure
High63 °F (Apr 21, 5:00 PM)100% (Apr 17, 2:00 AM)30.47 "Hg (Apr 17, 2:00 AM)
Low19 °F (Apr 13, 5:00 AM)11% (Apr 14, 12:00 PM)29.41 "Hg (Apr 23, 4:00 AM)
Average39 °F58%29.93 "Hg
* Reported Apr 9 10:00 PM — Apr 24 10:00 PM, Calgary, Weather by CustomWeather, © 2014

Note: Actual official high and low records may vary slightly from our data, if they occured in-between our weather recording intervals... More about our weather records

Advertising

Historic Weather Conditions — Data for Previous 24 hours

 ConditionsComfort  
Time TempWeatherWind HumidityBarometerVisibility
10:00 PM
Apr 24
45 °FPassing clouds.12 mph46%29.72 "Hg15 mi
9:00 PM46 °FBroken clouds.13 mph43%29.72 "Hg20 mi
8:00 PM48 °FPartly sunny.14 mph37%29.72 "Hg30 mi
7:00 PM50 °FPartly sunny.14 mph35%29.73 "Hg40 mi
6:00 PM52 °FPartly sunny.14 mph32%29.73 "Hg40 mi
5:00 PM54 °FPartly sunny.8 mph26%29.72 "Hg40 mi
4:00 PM52 °FPartly sunny.9 mph24%29.71 "Hg40 mi
3:00 PM52 °FBroken clouds.6 mph22%29.72 "Hg40 mi
2:00 PM52 °FPartly sunny.14 mph26%29.72 "Hg40 mi
1:00 PM50 °FScattered clouds.5 mph28%29.73 "Hg40 mi
12:00 PM48 °FPassing clouds.6 mph27%29.75 "Hg40 mi
11:00 AM46 °FPassing clouds.5 mph27%29.77 "Hg40 mi
10:00 AM45 °FPassing clouds.8 mph31%29.77 "Hg40 mi
9:00 AM37 °FPassing clouds.3 mph70%29.79 "Hg40 mi
8:00 AM32 °FPassing clouds.2 mph80%29.81 "Hg40 mi
7:00 AM27 °FPassing clouds.2 mph80%29.82 "Hg40 mi
6:00 AM25 °FPassing clouds.2 mph80%29.81 "Hg20 mi
5:00 AM27 °FClear.5 mph80%29.80 "Hg15 mi
4:00 AM28 °FClear.6 mph80%29.79 "Hg15 mi
3:00 AM28 °FClear.3 mph80%29.76 "Hg15 mi
2:00 AM34 °FClear.3 mph81%29.74 "Hg15 mi
1:00 AM36 °FPassing clouds.2 mph81%29.74 "Hg15 mi
12:00 AM36 °FPassing clouds.3 mph87%29.72 "Hg15 mi
11:00 PM
Apr 23
36 °FPassing clouds.6 mph87%29.71 "Hg15 mi
Weather by CustomWeather, © 2014

See weather overview